FW3632 Weather Reports


Display with metric or nautical units.
time (UTC)temp
F
wind
direction
speed
MPH
gust
MPH
rain 1hr
in
rain 24hr
in
rain mn
in
humidity
%
barometer
mb
20260906124027 68 69 1.0 4.0 0.00 0.00 0.00 50 1018.9
20260906123525 68 69 0.0 3.0 0.00 0.00 0.00 50 1019.0
20260906123026 68 69 0.0 2.0 0.00 0.00 0.00 50 1019.0
20260906122524 68 69 1.0 2.0 0.00 0.00 0.00 50 1019.1
20260906121518 67 69 0.0 2.0 0.00 0.00 0.00 50 1018.8
20260906121017 67 69 0.0 2.0 0.00 0.00 0.00 50 1018.6
20260906120015 67 69 0.0 2.0 0.00 0.00 0.00 49 1018.4
20260906115515 67 69 0.0 2.0 0.00 0.00 0.00 49 1018.5
20260906114507 67 69 0.0 2.0 0.00 0.00 0.00 49 1018.3
20260906114010 67 69 0.0 2.0 0.00 0.00 0.00 49 1018.2
20260906113507 67 69 1.0 2.0 0.00 0.00 0.00 48 1018.3
20260906113006 67 69 1.0 2.0 0.00 0.00 0.00 48 1018.1
20260906112001 67 69 0.0 2.0 0.00 0.00 0.00 48 1017.8
20260906111500 67 69 1.0 3.0 0.00 0.00 0.00 48 1017.8
20260906111002 67 69 1.0 3.0 0.00 0.00 0.00 47 1017.7
20260906110459 67 69 1.0 3.0 0.00 0.00 0.00 47 1017.8
20260906105959 67 69 1.0 3.0 0.00 0.00 0.00 47 1017.8
20260906105459 67 69 1.0 3.0 0.00 0.00 0.00 47 1017.8
20260906104955 67 69 1.0 2.0 0.00 0.00 0.00 46 1017.7
20260906103953 67 69 1.0 2.0 0.00 0.00 0.00 46 1017.5
20260906103453 67 69 1.0 5.0 0.00 0.00 0.00 46 1017.4
20260906102953 67 69 0.0 5.0 0.00 0.00 0.00 45 1017.4
20260906102455 67 69 0.0 3.0 0.00 0.00 0.00 45 1017.3
20260906101952 67 69 0.0 3.0 0.00 0.00 0.00 44 1017.3
20260906100949 67 69 0.0 3.0 0.00 0.00 0.00 44 1017.4
20260906100449 67 69 1.0 3.0 0.00 0.00 0.00 43 1017.3
20260906095947 67 69 1.0 3.0 0.00 0.00 0.00 43 1017.3
20260906095447 67 69 1.0 3.0 0.00 0.00 0.00 43 1017.3
20260906094941 68 69 1.0 3.0 0.00 0.00 0.00 43 1017.3
20260906094439 68 69 0.0 3.0 0.00 0.00 0.00 43 1017.1
20260906093937 68 69 0.0 2.0 0.00 0.00 0.00 43 1017.2
20260906092935 68 69 1.0 3.0 0.00 0.00 0.00 42 1017.2
20260906092433 68 69 0.0 3.0 0.00 0.00 0.00 42 1017.3
20260906091931 68 69 1.0 3.0 0.00 0.00 0.00 42 1017.2
20260906091432 68 69 1.0 3.0 0.00 0.00 0.00 42 1017.0
20260906090931 68 69 1.0 3.0 0.00 0.00 0.00 41 1017.0
20260906090429 68 69 0.0 2.0 0.00 0.00 0.00 41 1017.1
20260906085425 68 69 1.0 2.0 0.00 0.00 0.00 41 1017.1
20260906084925 69 69 0.0 2.0 0.00 0.00 0.00 41 1017.0
20260906084425 69 69 0.0 3.0 0.00 0.00 0.00 42 1016.9
20260906083925 69 69 0.0 3.0 0.00 0.00 0.00 42 1016.9
20260906083423 69 69 0.0 3.0 0.00 0.00 0.00 43 1016.9
20260906082925 69 69 0.0 3.0 0.00 0.00 0.00 43 1017.0
20260906081915 69 69 0.0 2.0 0.00 0.00 0.00 45 1017.0
20260906081413 69 69 0.0 2.0 0.00 0.00 0.00 46 1017.1
20260906080911 69 69 0.0 1.0 0.00 0.00 0.00 48 1017.1
20260906080413 69 69 0.0 2.0 0.00 0.00 0.00 50 1017.1
20260906075905 69 69 0.0 2.0 0.00 0.00 0.00 50 1017.2
20260906074900 69 69 0.0 0.0 0.00 0.00 0.00 52 1017.3
20260906074358 70 69 0.0 1.0 0.00 0.00 0.00 52 1017.3
20260906073901 70 69 0.0 1.0 0.00 0.00 0.00 52 1017.2
20260906073356 70 69 0.0 1.0 0.00 0.00 0.00 52 1017.2
20260906072856 70 69 0.0 1.0 0.00 0.00 0.00 52 1017.1
20260906072357 70 69 0.0 1.0 0.00 0.00 0.00 53 1017.2
20260906071855 70 69 0.0 1.0 0.00 0.00 0.00 53 1017.2
20260906071353 70 69 0.0 1.0 0.00 0.00 0.00 53 1017.3
20260906070350 70 69 0.0 1.0 0.00 0.00 0.00 54 1017.4
20260906065848 70 69 0.0 1.0 0.00 0.00 0.00 55 1017.3
20260906065350 70 69 0.0 1.0 0.00 0.00 0.00 55 1017.5
20260906064846 70 69 0.0 2.0 0.00 0.00 0.00 56 1017.5
20260906063846 70 69 0.0 1.0 0.00 0.00 0.00 57 1017.3
20260906063345 70 69 0.0 1.0 0.00 0.00 0.00 57 1017.2
20260906062843 70 69 0.0 1.0 0.00 0.00 0.00 57 1017.3
20260906062343 71 69 0.0 1.0 0.00 0.00 0.00 57 1017.3
20260906061842 71 69 0.0 1.0 0.00 0.00 0.00 57 1017.3
20260906061342 71 69 0.0 2.0 0.00 0.00 0.00 57 1017.3
20260906060840 71 69 0.0 2.0 0.00 0.00 0.00 57 1017.2
20260906060343 71 69 0.0 2.0 0.00 0.00 0.00 57 1017.3
20260906055835 71 69 0.0 2.0 0.00 0.00 0.00 57 1017.3
20260906055335 71 69 0.0 2.0 0.00 0.00 0.00 57 1017.3
20260906054836 71 69 0.0 3.0 0.00 0.00 0.00 57 1017.2
20260906054334 71 69 0.0 3.0 0.00 0.00 0.00 57 1017.1
20260906052833 71 69 0.0 2.0 0.00 0.00 0.00 57 1017.2
20260906052332 71 69 0.0 3.0 0.00 0.00 0.00 57 1017.2
20260906051833 71 69 0.0 3.0 0.00 0.00 0.00 58 1017.1
20260906051331 71 69 0.0 4.0 0.00 0.00 0.00 58 1016.9
20260906050831 71 69 0.0 4.0 0.00 0.00 0.00 58 1016.9
20260906045830 71 69 0.0 1.0 0.00 0.00 0.00 58 1016.9
20260906045330 71 69 0.0 2.0 0.00 0.00 0.00 59 1016.9
20260906044829 71 69 0.0 2.0 0.00 0.00 0.00 59 1016.9
20260906043826 71 69 0.0 4.0 0.00 0.00 0.00 59 1016.7
20260906043324 72 69 0.0 2.0 0.00 0.00 0.00 59 1016.7
20260906042824 72 69 0.0 3.0 0.00 0.00 0.00 59 1016.6
20260906041825 72 69 0.0 2.0 0.00 0.00 0.00 59 1016.5
20260906041324 72 69 0.0 2.0 0.00 0.00 0.00 59 1016.4
20260906040820 72 69 0.0 4.0 0.00 0.00 0.00 59 1016.3
20260906040321 72 69 1.0 5.0 0.00 0.00 0.00 59 1016.2
20260906035820 72 69 1.0 5.0 0.00 0.00 0.00 59 1016.1
20260906035320 72 69 1.0 4.0 0.00 0.00 0.00 59 1016.2
20260906034820 72 69 0.0 3.0 0.00 0.00 0.00 59 1016.2
20260906033316 72 69 1.0 5.0 0.00 0.00 0.00 59 1016.2
20260906032817 72 69 0.0 6.0 0.00 0.00 0.00 59 1016.0
20260906032316 72 69 0.0 6.0 0.00 0.00 0.00 59 1016.0
20260906031816 72 69 0.0 2.0 0.00 0.00 0.00 59 1016.0
20260906031317 72 69 0.0 4.0 0.00 0.00 0.00 59 1015.9
20260906030312 73 69 0.0 4.0 0.00 0.00 0.00 59 1016.0
20260906025812 73 69 0.0 4.0 0.00 0.00 0.00 59 1016.0
20260906025312 73 69 1.0 4.0 0.00 0.00 0.00 59 1016.0
20260906024312 73 69 0.0 4.0 0.00 0.00 0.00 59 1016.1
20260906023811 73 69 1.0 3.0 0.00 0.00 0.00 59 1016.0
20260906023306 73 69 1.0 4.0 0.00 0.00 0.00 58 1016.1
20260906022301 73 69 0.0 3.0 0.00 0.00 0.00 58 1016.1
20260906021801 73 69 0.0 2.0 0.00 0.00 0.00 58 1016.0
20260906021300 73 69 0.0 3.0 0.00 0.00 0.00 58 1016.0
20260906020258 73 69 1.0 4.0 0.00 0.00 0.00 58 1015.9
20260906015759 73 69 2.0 10.0 0.00 0.00 0.00 58 1015.8
20260906015250 73 69 2.0 10.0 0.00 0.00 0.00 58 1015.9
20260906014248 73 69 2.0 8.0 0.00 0.00 0.00 58 1016.0
20260906013748 73 69 2.0 5.0 0.00 0.00 0.00 58 1016.0
20260906013248 73 69 2.0 6.0 0.00 0.00 0.00 58 1016.0
20260906012242 73 69 1.0 5.0 0.00 0.00 0.00 58 1016.0
20260906011742 73 69 1.0 6.0 0.00 0.00 0.00 58 1016.0
20260906011243 73 69 1.0 6.0 0.00 0.00 0.00 58 1015.9
20260906010742 73 69 1.0 5.0 0.00 0.00 0.00 58 1015.9
20260906010242 73 69 2.0 6.0 0.00 0.00 0.00 58 1015.9
20260906005235 73 69 2.0 6.0 0.00 0.00 0.00 58 1015.9
20260906004734 73 69 1.0 9.0 0.00 0.00 0.00 59 1015.9
20260906004237 73 69 1.0 9.0 0.00 0.00 0.00 59 1015.8
20260906003732 73 69 1.0 6.0 0.00 0.00 0.00 59 1015.8
20260906003232 74 69 1.0 6.0 0.00 0.00 0.00 59 1015.6
20260906002732 74 69 1.0 5.0 0.00 0.00 0.00 59 1015.5
20260906001728 74 69 2.0 6.0 0.00 0.00 0.00 58 1015.4
20260906001227 74 69 1.0 6.0 0.00 0.00 0.00 58 1015.3
20260906000726 75 69 1.0 5.0 0.00 0.00 0.00 58 1015.2
20260906000226 75 69 1.0 4.0 0.00 0.00 0.00 58 1015.2
20260905235724 75 69 1.0 4.0 0.00 0.00 0.00 57 1015.0
20260905235223 76 69 1.0 5.0 0.00 0.00 0.00 57 1014.9
20260905233721 77 69 1.0 6.0 0.00 0.00 0.00 55 1015.0
20260905233218 78 69 1.0 6.0 0.00 0.00 0.00 55 1015.0
20260905232720 78 69 1.0 4.0 0.00 0.00 0.00 56 1015.0
20260905231714 78 69 1.0 5.0 0.00 0.00 0.00 55 1014.8
20260905231214 79 69 1.0 5.0 0.00 0.00 0.00 54 1014.8
20260905230715 79 70 2.0 5.0 0.00 0.00 0.00 54 1014.7
20260905225712 80 69 2.0 5.0 0.00 0.00 0.00 52 1014.6
20260905225210 80 69 1.0 4.0 0.00 0.00 0.00 52 1014.5
20260905224209 81 69 1.0 4.0 0.00 0.00 0.00 50 1014.4
20260905223707 83 69 1.0 9.0 0.00 0.00 0.00 49 1014.4
20260905223206 83 69 1.0 9.0 0.00 0.00 0.00 48 1014.2
20260905222705 82 69 2.0 6.0 0.00 0.00 0.00 49 1014.2
20260905221658 82 69 2.0 6.0 0.00 0.00 0.00 48 1014.2
20260905221157 83 69 2.0 6.0 0.00 0.00 0.00 49 1014.1
20260905220654 82 69 2.0 6.0 0.00 0.00 0.00 49 1014.0
20260905220154 82 69 2.0 6.0 0.00 0.00 0.00 49 1014.1
20260905215648 82 69 1.0 4.0 0.00 0.00 0.00 50 1014.2
20260905215148 81 69 1.0 5.0 0.00 0.00 0.00 51 1014.3
20260905214647 81 69 1.0 5.0 0.00 0.00 0.00 50 1014.4
20260905214148 82 69 1.0 5.0 0.00 0.00 0.00 49 1014.4
20260905213648 82 69 1.0 4.0 0.00 0.00 0.00 50 1014.4
20260905213150 81 69 2.0 5.0 0.00 0.00 0.00 51 1014.3
20260905212646 81 69 1.0 5.0 0.00 0.00 0.00 53 1014.3
20260905212144 81 69 1.0 5.0 0.00 0.00 0.00 52 1014.3
20260905211643 81 69 1.0 5.0 0.00 0.00 0.00 51 1014.4
20260905211142 82 69 1.0 5.0 0.00 0.00 0.00 51 1014.3
20260905210141 82 69 1.0 5.0 0.00 0.00 0.00 51 1014.5
20260905205636 81 69 1.0 5.0 0.00 0.00 0.00 53 1014.5
20260905204639 79 69 1.0 2.0 0.00 0.00 0.00 54 1014.6
20260905204136 80 69 1.0 3.0 0.00 0.00 0.00 54 1014.7
20260905203635 80 69 1.0 4.0 0.00 0.00 0.00 54 1014.7
20260905203135 80 69 2.0 5.0 0.00 0.00 0.00 54 1014.8
20260905202132 80 69 1.0 4.0 0.00 0.00 0.00 53 1014.8
20260905201633 80 69 1.0 4.0 0.00 0.00 0.00 54 1014.8
20260905201132 79 69 2.0 6.0 0.00 0.00 0.00 55 1014.8
20260905200629 79 69 2.0 6.0 0.00 0.00 0.00 55 1014.9
20260905200133 79 69 2.0 5.0 0.00 0.00 0.00 55 1014.8
20260905195624 79 69 2.0 9.0 0.00 0.00 0.00 55 1014.8
20260905195122 79 69 2.0 9.0 0.00 0.00 0.00 55 1014.8
20260905194620 79 69 2.0 8.0 0.00 0.00 0.00 54 1014.8
20260905194117 79 69 2.0 6.0 0.00 0.00 0.00 54 1014.8
20260905193621 79 69 2.0 8.0 0.00 0.00 0.00 54 1014.8
20260905193116 79 69 3.0 9.0 0.00 0.00 0.00 55 1014.9
20260905192613 79 69 2.0 9.0 0.00 0.00 0.00 54 1014.8
20260905192114 80 69 1.0 6.0 0.00 0.00 0.00 54 1014.9
20260905191614 80 69 2.0 6.0 0.00 0.00 0.00 53 1015.0
20260905191111 80 69 3.0 8.0 0.00 0.00 0.00 53 1014.9
20260905190612 81 69 2.0 8.0 0.00 0.00 0.00 52 1015.0
20260905190106 81 69 2.0 9.0 0.00 0.00 0.00 52 1014.9
20260905185603 82 69 3.0 9.0 0.00 0.00 0.00 51 1014.9
20260905185102 82 69 3.0 8.0 0.00 0.00 0.00 51 1014.9
20260905184559 82 69 3.0 8.0 0.00 0.00 0.00 52 1014.9
20260905184059 82 69 3.0 8.0 0.00 0.00 0.00 52 1014.9
20260905183558 81 69 2.0 8.0 0.00 0.00 0.00 53 1015.0
20260905183055 81 69 2.0 8.0 0.00 0.00 0.00 52 1015.0
20260905182054 82 69 2.0 8.0 0.00 0.00 0.00 52 1015.0
20260905181554 82 69 3.0 9.0 0.00 0.00 0.00 52 1014.9
20260905180548 82 69 2.0 6.0 0.00 0.00 0.00 53 1014.8
20260905180048 81 69 2.0 6.0 0.00 0.00 0.00 53 1014.8
20260905175548 82 69 2.0 6.0 0.00 0.00 0.00 52 1014.9
20260905174545 82 69 2.0 6.0 0.00 0.00 0.00 53 1014.7
20260905174045 82 69 2.0 9.0 0.00 0.00 0.00 53 1014.7
20260905173036 84 69 2.0 6.0 0.00 0.00 0.00 51 1014.7
20260905172531 83 69 2.0 6.0 0.00 0.00 0.00 53 1014.7
20260905172029 82 69 2.0 6.0 0.00 0.00 0.00 52 1014.7
20260905171530 83 69 2.0 6.0 0.00 0.00 0.00 52 1014.7
20260905171030 83 69 2.0 6.0 0.00 0.00 0.00 52 1014.7
20260905170528 82 69 2.0 6.0 0.00 0.00 0.00 52 1014.8
20260905170028 83 69 2.0 8.0 0.00 0.00 0.00 52 1014.8
20260905165527 83 69 2.0 8.0 0.00 0.00 0.00 52 1014.8
20260905164524 84 69 1.0 3.0 0.00 0.00 0.00 50 1014.9
20260905164023 84 69 1.0 5.0 0.00 0.00 0.00 50 1015.0
20260905163524 84 69 1.0 8.0 0.00 0.00 0.00 51 1015.0
20260905163024 83 69 1.0 8.0 0.00 0.00 0.00 51 1015.0
20260905162523 83 69 1.0 3.0 0.00 0.00 0.00 52 1014.9
20260905162019 81 69 2.0 6.0 0.00 0.00 0.00 53 1014.9
20260905161519 81 69 3.0 10.0 0.00 0.00 0.00 53 1015.0
20260905161022 82 69 2.0 10.0 0.00 0.00 0.00 52 1015.0
20260905160520 82 69 1.0 5.0 0.00 0.00 0.00 51 1015.0
20260905160020 82 69 1.0 5.0 0.00 0.00 0.00 52 1015.0
20260905155519 82 69 1.0 5.0 0.00 0.00 0.00 52 1014.8
20260905155015 82 69 1.0 4.0 0.00 0.00 0.00 52 1014.8
20260905154015 81 69 1.0 5.0 0.00 0.00 0.00 52 1014.7
20260905153515 81 69 1.0 4.0 0.00 0.00 0.00 52 1014.8
20260905152516 81 69 1.0 6.0 0.00 0.00 0.00 52 1014.8
20260905151514 81 69 1.0 5.0 0.00 0.00 0.00 52 1014.6
20260905150512 80 69 1.0 8.0 0.00 0.00 0.00 51 1014.5
20260905150010 80 69 1.0 5.0 0.00 0.00 0.00 51 1014.5
20260905145510 79 69 1.0 8.0 0.00 0.00 0.00 51 1014.4
20260905145007 78 69 1.0 8.0 0.00 0.00 0.00 50 1014.4
20260905144507 77 69 1.0 8.0 0.00 0.00 0.00 50 1014.4
20260905144001 77 69 1.0 5.0 0.00 0.00 0.00 49 1014.3
20260905143500 77 69 1.0 5.0 0.00 0.00 0.00 48 1014.3
20260905142455 76 69 2.0 8.0 0.00 0.00 0.00 46 1014.4
20260905141955 76 69 2.0 8.0 0.00 0.00 0.00 44 1014.4
20260905141453 75 69 2.0 8.0 0.00 0.00 0.00 44 1014.3
20260905140951 75 69 1.0 4.0 0.00 0.00 0.00 43 1014.2
20260905140450 75 69 1.0 5.0 0.00 0.00 0.00 42 1014.2
20260905135949 75 69 1.0 5.0 0.00 0.00 0.00 42 1014.1
20260905135447 75 69 1.0 5.0 0.00 0.00 0.00 42 1014.1
20260905134949 75 69 1.0 4.0 0.00 0.00 0.00 43 1014.1
20260905134445 75 69 1.0 4.0 0.00 0.00 0.00 43 1014.1
20260905133943 75 69 1.0 4.0 0.00 0.00 0.00 44 1014.1
20260905132943 76 69 2.0 5.0 0.00 0.00 0.00 44 1014.0
20260905132443 76 69 2.0 6.0 0.00 0.00 0.00 45 1014.2
20260905131944 76 69 2.0 6.0 0.00 0.00 0.00 45 1014.2
20260905130937 76 69 1.0 5.0 0.00 0.00 0.00 48 1014.2
20260905130436 76 69 1.0 5.0 0.00 0.00 0.00 49 1014.0
20260905125935 75 69 1.0 3.0 0.00 0.00 0.00 49 1013.9
20260905125435 75 69 0.0 3.0 0.00 0.00 0.00 50 1013.7
20260905124437 75 69 1.0 4.0 0.00 0.00 0.00 50 1013.5